Torna al catalogo

STARLINK-34106

AttivoComunicazioniVLEO
NORAD 63907·PAYLOAD·🇺🇸 United States

Lanciato May 10, 2025 da Cape Canaveral Space Force Station

Loading…

Prossimi Passaggi (prossime 24 ore)

TLE

AggiornatoSource: CelesTrak SupGP

Epoca: Sep 14, 2026, 20:45 UTC

1 63907C 25095T   26257.86506944  .00010412  00000+0  37716-3 0  2571
2 63907  43.0031 187.5411 0001322 258.1554  89.9921 15.27569827    14

Traccia STARLINK-34106 in tempo reale con AllMySat

Download on the App Store